Zurück zum Katalog

THOR ABLESTAR DEB

AktivLEO
NORAD 330·DEBRIS·🇺🇸 United States

Gestartet Jun 29, 1961 von Cape Canaveral Space Force Station

Loading…

Nächste Überflüge (nächste 24 Stunden)

TLE

AktuellSource: Space-Track

Epoche: Sep 6, 2026, 23:45 UTC

1 00330U 61015DG  26249.98979490  .00000457  00000-0  31865-3 0  9999
2 00330  66.9776 100.2167 0043183  54.3963 306.1136 14.06882665308215

Verfolge THOR ABLESTAR DEB in Echtzeit mit AllMySat

Download on the App Store